Au Train, MI (49806)

2:21 PM EST on February 09, 2016 (GMT -0500)
MesoWest | | Change Station
CLOSE
Current Station
Personal Weather Station
Location: Au Train, MI
Elevation: 609 ft
Nearby Weather Stations
Active Advisory: Lake Effect Snow Advisory Active Notice: Local Storm Report

Elev 609 ft 46.43 °N, 86.84 °W | Updated 41 minutes ago

Snow
Snow
19 °F
Feels Like 8 °F
N
9
Wind Variable Wind from NNW
Gusts 24.0 mph

Today
High -- | Low -- °F
--% Chance of Precip.
Yesterday
High -- | Low -- °F
Precip. -- in
Pressure 29.74 in
Visibility 0.5 miles
Clouds Mostly Cloudy 1100 ft
Overcast 2100 ft
Windchill 8 °F
Dew Point 16 °F
Humidity 86%
Rainfall in
Snow Depth Not available.
8:00 AM 6:03 PM
New Moon, 2% visible
METAR KSAW 091855Z 35018G25KT 1/2SM SN BKN011 OVC021 M10/M13 A2974
Pressure 29.74 in
Visibility 0.5 miles
Clouds Mostly Cloudy 1100 ft
Overcast 2100 ft
Windchill 8 °F
Dew Point 16 °F
Humidity 86%
Rainfall in
Snow Depth Not available.
8:00 AM 6:03 PM
New Moon, 2% visible
METAR KSAW 091855Z 35018G25KT 1/2SM SN BKN011 OVC021 M10/M13 A2974

10-Day Weather Forecast

Almanac

Astronomy

Feb. 09, 2016 Rise Set
Actual Time
Civil Twilight
Nautical Twilight
Astronomical Twilight
Moon
Length of Visible Light
Length of Day
Tomorrow will be .
, % of the Moon is Illuminated

Today's Extremes

State Highs State Lows

Community

WunderPhotos

Upload Photos

1,891,668 photos uploaded!

WunderBlog® & News

Nearby

Air Quality

  Air Quality AQ Index Pollutant
Not available.

Snow Depth

Station Depth Elevation

Earthquake Activity

City Distance Mag. Time & Date
Minimum magnitude displayed is 2.5.

Coastal Water Temperatures

Place Temperature

Stations

Nearby Weather Stations

Station Location Temp. Windchill Dew Point Humidity Wind Precip. Elev Updated Type
                   

Watches & Warnings

Lake Effect Snow Advisory
Issued: 10:32 AM EST Feb. 9, 2016 – National Weather Service

... Lake effect Snow Advisory remains in effect until 7 PM EST
Wednesday...

Hazardous weather...

* lake effect snow showers will continue through tonight before
   diminishing Wednesday afternoon.

* Expect snowfall accumulations of 2 to 4 inches today with
   another 3 to 6 inches from tonight through Wednesday morning.
   Look for the greatest accumulations over western Alger
   County.

* Expect areas of blowing snow with reduced visibility from
   today through Wednesday morning along Lake Superior.

Impacts...

* roads will be snow covered and slippery.

Precautionary/preparedness actions...

* a lake effect Snow Advisory Means Lake effect snow is
   forecast that will make travel difficult in some areas.

* Prepare... plan... and stay informed. Visit www.Weather.Gov/MQT



07